Location: ??????
(41.3747°N, 22.5491°E)
Time: 05:22:46
(UTC+00:00)

Cosmos 1666 Rocket - Pass Details

Date: 01 December 2020
Orbit: 604 x 632 km, 82.5° (Epoch: 20 January)

Event Time Altitude Azimuth Distance (km) Brightness Sun altitude
Rises 16:01:34 0° 348° (NNW) 2,910 6.9 -11.2°
Reaches altitude 10° 16:03:49 10° 345° (NNW) 2,003 6.1 -11.6°
Maximum altitude 16:08:11 60° 266° (W) 721 4.2 -12.3°
Drops below altitude 10° 16:12:33 10° 186° (S) 2,002 6.5 -13.1°
Sets 16:14:48 0° 183° (S) 2,907 7.3 -13.5°
